When you browse on this site, cookies collect data to enhance your experience and personalize the content and advertising you see.
Visit our Privacy Policy to learn more. By continuing to use the site, you agree to this use of cookies and data.
  • Em Portugal
  • Lista de países
  • Para 7 dias
  • Temperatura da água
  • Mapa do tempo
  • Widgets de tempo
  • user-avatar
    Iniciar Sessão

    Previsão horária em Sergievskoe

    Hoje, 7 Junho, Domingo

    Tempo Temperatura Precipitação Vento Pressão Humidade
    00:00 +15°C° 0 mm 2 m/s 741 mmHg 97%
    01:00 +15°C° 0 mm 1 m/s 742 mmHg 97%
    02:00 +15°C° 0 mm 1 m/s 742 mmHg 97%
    03:00 +15°C° 0 mm 1 m/s 742 mmHg 97%
    04:00 +15°C° 0 mm 1 m/s 743 mmHg 96%
    05:00 +16°C° 0 mm 1 m/s 743 mmHg 96%
    06:00 +18°C° 0 mm 1 m/s 743 mmHg 90%
    07:00 +20°C° 0 mm 1 m/s 744 mmHg 85%
    08:00 +21°C° 0 mm 1 m/s 744 mmHg 80%
    09:00 +23°C° 0 mm 1 m/s 744 mmHg 72%
    10:00 +24°C° 0 mm 1 m/s 745 mmHg 64%
    11:00 +26°C° 0 mm 1 m/s 745 mmHg 55%
    12:00 +26°C° 0 mm 1 m/s 745 mmHg 53%
    13:00 +26°C° 0 mm 1 m/s 745 mmHg 51%
    14:00 +27°C° 0 mm 1 m/s 745 mmHg 49%
    15:00 +27°C° 0 mm 1 m/s 745 mmHg 53%
    16:00 +26°C° 0 mm 1 m/s 745 mmHg 57%
    17:00 +26°C° 0 mm 1 m/s 744 mmHg 60%
    18:00 +24°C° 0 mm 1 m/s 744 mmHg 67%
    19:00 +22°C° 0 mm 1 m/s 745 mmHg 73%
    20:00 +20°C° 0 mm 1 m/s 745 mmHg 80%
    21:00 +19°C° 0 mm 1 m/s 745 mmHg 82%
    22:00 +18°C° 0 mm 1 m/s 745 mmHg 84%
    23:00 +18°C° 0 mm 1 m/s 745 mmHg 87%

    Amanhã, 8 Junho, Segunda-feira

    Tempo Temperatura Precipitação Vento Pressão Humidade
    00:00 +16°C° 0 mm 1 m/s 745 mmHg 89%
    01:00 +16°C° 0 mm 1 m/s 745 mmHg 91%
    02:00 +16°C° 0 mm 1 m/s 745 mmHg 93%
    03:00 +18°C° 0 mm 1 m/s 745 mmHg 92%
    04:00 +18°C° 0 mm 1 m/s 745 mmHg 92%
    05:00 +19°C° 0 mm 1 m/s 745 mmHg 91%
    06:00 +20°C° 0 mm 2 m/s 745 mmHg 86%
    07:00 +23°C° 0 mm 2 m/s 745 mmHg 81%
    08:00 +24°C° 0 mm 2 m/s 745 mmHg 76%
    09:00 +25°C° 0.2 mm 2 m/s 745 mmHg 73%
    10:00 +26°C° 0.2 mm 3 m/s 745 mmHg 70%
    11:00 +28°C° 0.2 mm 3 m/s 745 mmHg 67%
    12:00 +28°C° 0.9 mm 3 m/s 745 mmHg 68%
    13:00 +28°C° 0.9 mm 3 m/s 745 mmHg 68%
    14:00 +28°C° 0.9 mm 2 m/s 745 mmHg 69%
    15:00 +28°C° 0.3 mm 2 m/s 745 mmHg 71%
    16:00 +27°C° 0.3 mm 2 m/s 744 mmHg 73%
    17:00 +27°C° 0.3 mm 2 m/s 744 mmHg 74%
    18:00 +26°C° 0 mm 2 m/s 744 mmHg 80%
    19:00 +24°C° 0 mm 2 m/s 744 mmHg 85%
    20:00 +23°C° 0 mm 1 m/s 744 mmHg 90%
    21:00 +22°C° 0 mm 1 m/s 745 mmHg 91%
    22:00 +21°C° 0 mm 1 m/s 745 mmHg 93%
    23:00 +20°C° 0 mm 1 m/s 745 mmHg 94%

    Depois de amanhã, 9 Junho, Terça-feira

    Tempo Temperatura Precipitação Vento Pressão Humidade
    00:00 +20°C° 0.1 mm 1 m/s 745 mmHg 94%
    01:00 +20°C° 0.1 mm 1 m/s 745 mmHg 95%
    02:00 +19°C° 0.1 mm 1 m/s 745 mmHg 95%
    03:00 +20°C° 0 mm 1 m/s 745 mmHg 94%
    04:00 +20°C° 0 mm 1 m/s 745 mmHg 94%
    05:00 +21°C° 0 mm 1 m/s 745 mmHg 93%
    06:00 +22°C° 0 mm 1 m/s 745 mmHg 87%
    07:00 +24°C° 0 mm 1 m/s 746 mmHg 82%
    08:00 +26°C° 0 mm 1 m/s 746 mmHg 76%
    09:00 +26°C° 0.6 mm 1 m/s 746 mmHg 73%
    10:00 +27°C° 0.6 mm 2 m/s 746 mmHg 71%
    11:00 +28°C° 0.6 mm 2 m/s 746 mmHg 69%
    12:00 +28°C° 0.2 mm 2 m/s 746 mmHg 68%
    13:00 +28°C° 0.2 mm 2 m/s 745 mmHg 67%
    14:00 +29°C° 0.2 mm 2 m/s 745 mmHg 66%
    15:00 +28°C° 1.2 mm 2 m/s 745 mmHg 72%
    16:00 +27°C° 1.2 mm 2 m/s 745 mmHg 77%
    17:00 +27°C° 1.2 mm 2 m/s 745 mmHg 83%
    18:00 +25°C° 0.4 mm 2 m/s 745 mmHg 86%
    19:00 +24°C° 0.4 mm 2 m/s 745 mmHg 89%
    20:00 +22°C° 0.4 mm 3 m/s 745 mmHg 92%
    21:00 +21°C° 0 mm 2 m/s 745 mmHg 94%
    22:00 +21°C° 0 mm 2 m/s 745 mmHg 95%
    23:00 +20°C° 0 mm 2 m/s 746 mmHg 96%

    10 Junho, Quarta-feira

    Tempo Temperatura Precipitação Vento Pressão Humidade
    00:00 +20°C° 0 mm 2 m/s 746 mmHg 96%
    01:00 +19°C° 0 mm 2 m/s 746 mmHg 96%
    02:00 +19°C° 0 mm 2 m/s 746 mmHg 97%
    03:00 +19°C° 0 mm 2 m/s 746 mmHg 96%
    04:00 +19°C° 0 mm 2 m/s 746 mmHg 96%
    05:00 +19°C° 0 mm 2 m/s 746 mmHg 95%
    06:00 +21°C° 0 mm 2 m/s 746 mmHg 91%
    07:00 +23°C° 0 mm 2 m/s 746 mmHg 87%
    08:00 +24°C° 0 mm 2 m/s 746 mmHg 83%
    09:00 +25°C° 0 mm 3 m/s 746 mmHg 77%
    10:00 +26°C° 0 mm 3 m/s 746 mmHg 71%
    11:00 +27°C° 0 mm 3 m/s 746 mmHg 65%
    12:00 +28°C° 0 mm 3 m/s 746 mmHg 63%
    13:00 +28°C° 0 mm 3 m/s 745 mmHg 61%
    14:00 +28°C° 0 mm 2 m/s 745 mmHg 59%
    15:00 +28°C° 0.2 mm 2 m/s 745 mmHg 62%
    16:00 +28°C° 0.2 mm 2 m/s 745 mmHg 65%
    17:00 +27°C° 0.2 mm 2 m/s 745 mmHg 69%
    18:00 +26°C° 0.1 mm 2 m/s 745 mmHg 73%
    19:00 +24°C° 0.1 mm 2 m/s 745 mmHg 78%
    20:00 +21°C° 0.1 mm 2 m/s 745 mmHg 83%
    21:00 +21°C° 0 mm 2 m/s 745 mmHg 85%
    22:00 +21°C° 0 mm 1 m/s 745 mmHg 88%
    23:00 +20°C° 0 mm 1 m/s 745 mmHg 91%

    11 Junho, Quinta-feira

    Tempo Temperatura Precipitação Vento Pressão Humidade
    00:00 +20°C° 0 mm 1 m/s 745 mmHg 92%
    01:00 +19°C° 0 mm 1 m/s 745 mmHg 93%
    02:00 +19°C° 0 mm 1 m/s 745 mmHg 93%
    03:00 +19°C° 0 mm 1 m/s 745 mmHg 92%
    04:00 +20°C° 0 mm 1 m/s 745 mmHg 91%
    05:00 +21°C° 0 mm 1 m/s 745 mmHg 89%
    06:00 +22°C° 0 mm 1 m/s 745 mmHg 84%
    07:00 +24°C° 0 mm 1 m/s 745 mmHg 78%
    08:00 +25°C° 0 mm 1 m/s 746 mmHg 72%
    09:00 +26°C° 0 mm 1 m/s 746 mmHg 67%
    10:00 +27°C° 0 mm 1 m/s 745 mmHg 62%
    11:00 +28°C° 0 mm 2 m/s 745 mmHg 57%
    12:00 +29°C° 0 mm 1 m/s 745 mmHg 56%
    13:00 +29°C° 0 mm 1 m/s 745 mmHg 54%
    14:00 +29°C° 0 mm 1 m/s 745 mmHg 53%
    15:00 +29°C° 0 mm 1 m/s 744 mmHg 57%
    16:00 +28°C° 0 mm 1 m/s 744 mmHg 61%
    17:00 +28°C° 0 mm 1 m/s 744 mmHg 65%
    18:00 +26°C° 0.1 mm 1 m/s 744 mmHg 70%
    19:00 +24°C° 0.1 mm 1 m/s 744 mmHg 76%
    20:00 +23°C° 0.1 mm 1 m/s 744 mmHg 81%
    21:00 +22°C° 0 mm 1 m/s 744 mmHg 84%
    22:00 +21°C° 0 mm 1 m/s 744 mmHg 86%
    23:00 +20°C° 0 mm 1 m/s 744 mmHg 88%

    12 Junho, Sexta-feira

    Tempo Temperatura Precipitação Vento Pressão Humidade
    00:00 +20°C° 0 mm 1 m/s 744 mmHg 89%
    01:00 +19°C° 0 mm 1 m/s 744 mmHg 91%
    02:00 +17°C° 0 mm 0 m/s 744 mmHg 92%
    03:00 +18°C° 0 mm 0 m/s 744 mmHg 90%
    04:00 +18°C° 0 mm 0 m/s 744 mmHg 89%
    05:00 +19°C° 0 mm 0 m/s 744 mmHg 87%
    06:00 +23°C° 0 mm 1 m/s 744 mmHg 82%
    07:00 +24°C° 0 mm 1 m/s 744 mmHg 77%
    08:00 +26°C° 0 mm 1 m/s 744 mmHg 72%
    09:00 +27°C° 0.4 mm 1 m/s 744 mmHg 69%
    10:00 +28°C° 0.4 mm 1 m/s 744 mmHg 65%
    11:00 +28°C° 0.4 mm 1 m/s 744 mmHg 61%
    12:00 +28°C° 0.8 mm 1 m/s 744 mmHg 63%
    13:00 +28°C° 0.8 mm 1 m/s 744 mmHg 65%
    14:00 +28°C° 0.8 mm 2 m/s 743 mmHg 67%
    15:00 +28°C° 0.4 mm 2 m/s 743 mmHg 70%
    16:00 +27°C° 0.4 mm 2 m/s 743 mmHg 73%
    17:00 +27°C° 0.4 mm 2 m/s 743 mmHg 75%
    18:00 +25°C° 0 mm 2 m/s 744 mmHg 80%
    19:00 +24°C° 0 mm 3 m/s 744 mmHg 85%
    20:00 +21°C° 0 mm 3 m/s 744 mmHg 90%
    21:00 +20°C° 0.1 mm 3 m/s 744 mmHg 92%
    22:00 +19°C° 0.1 mm 3 m/s 744 mmHg 94%
    23:00 +19°C° 0.1 mm 3 m/s 744 mmHg 96%
    Mostrar mais